Shreveport, LA

2:04 PM CDT on August 27, 2016 (GMT -0500)
Shreveport Regional

Weather History for KSHV - February, 2014

Change the Weather History Date:

Sunday, February 23, 2014

  Actual Average Record
Temperature  
Mean Temperature 65 °F 52 °F  
Max Temperature 80 °F 64 °F 87 °F (2012)
Min Temperature 50 °F 42 °F 21 °F (1901)
Degree Days  
Heating Degree Days 0 13  
Month to date heating degree days 390 349  
Since 1 July heating degree days 2019 1821  
Cooling Degree Days 0 0  
Month to date cooling degree days 6 0  
Year to date cooling degree days 6 4  
Growing Degree Days 18 (Base 50)    
Moisture  
Dew Point 50 °F    
Average Humidity 59    
Maximum Humidity 73    
Minimum Humidity 45    
Precipitation  
Precipitation 0.00 in 0.17 in 1.47 in (1885)
Month to date precipitation 2.27 3.95  
Year to date precipitation 3.09 8.15  
Snow  
Snow 0.00 in - - ()
Month to date snowfall 1.0  
Since 1 July snowfall 1.0  
Snow Depth 0.00 in    
Sea Level Pressure  
Sea Level Pressure 29.97 in    
Wind  
Wind Speed 7 mph (NNE)    
Max Wind Speed 21 mph    
Max Gust Speed 26 mph    
Visibility 10 miles    
Events      
T = Trace of Precipitation, MM = Missing Value Source: NWS Daily Summary

Daily Weather History Graph

Daily Weather History Graph

Search for Another Location

Airport or City:

Trip Planner

Search our weather history database for the weather conditions in past years. The results will help you decide how hot, cold, wet, or windy it might be!

Date:

Astronomy

Feb. 23, 2014 Rise Set
Actual Time 6:49 AM CST 6:08 PM CST
Civil Twilight 6:24 AM CST 6:32 PM CST
Nautical Twilight 5:56 AM CST 7:01 PM CST
Astronomical Twilight 5:27 AM CST 7:29 PM CST
Moon 1:39 AM CST (2/23) 12:21 PM CST (2/23)
Length of Visible Light 12h 07m
Length of Day
11h 18m
Last Quarter, 38% of the Moon is Illuminated
Feb 23
Last Quarter
Mar 1
New
Mar 8
First Quarter
Mar 16
Full
Mar 23
Last Quarter

Hourly Weather History & Observations

Time (CST) Temp. Dew Point Humidity Pressure Visibility Wind Dir Wind Speed Gust Speed Precip Events Conditions
12:56 AM 53.1 °F 39.0 °F 59% 29.95 in 10.0 mi SSE 3.5 mph - N/A   Scattered Clouds
1:56 AM 50.0 °F 39.9 °F 68% 29.94 in 10.0 mi ESE 3.5 mph - N/A   Scattered Clouds
2:13 AM 51.8 °F 41.0 °F 67% 29.95 in 10.0 mi Calm Calm - N/A   Mostly Cloudy
2:56 AM 53.1 °F 43.0 °F 69% 29.94 in 10.0 mi Calm Calm - N/A   Overcast
3:56 AM 55.9 °F 44.1 °F 64% 29.93 in 10.0 mi Calm Calm - N/A   Overcast
4:56 AM 55.9 °F 45.0 °F 67% 29.93 in 10.0 mi SSE 4.6 mph - N/A   Overcast
5:56 AM 57.0 °F 48.0 °F 72% 29.94 in 10.0 mi SE 3.5 mph - N/A   Overcast
6:56 AM 57.0 °F 48.0 °F 72% 29.96 in 10.0 mi Calm Calm - N/A   Overcast
7:45 AM 57.2 °F 48.2 °F 72% 29.97 in 10.0 mi Calm Calm - N/A   Overcast
7:56 AM 57.9 °F 48.0 °F 70% 29.96 in 10.0 mi Calm Calm - N/A   Overcast
8:56 AM 61.0 °F 51.1 °F 70% 29.97 in 10.0 mi South 8.1 mph - N/A   Mostly Cloudy
9:56 AM 64.9 °F 55.0 °F 70% 29.97 in 10.0 mi SW 8.1 mph - N/A   Overcast
10:56 AM 69.1 °F 59.0 °F 70% 29.97 in 10.0 mi SSW 6.9 mph - N/A   Overcast
11:56 AM 73.0 °F 59.0 °F 61% 29.95 in 10.0 mi SSW 9.2 mph - N/A   Mostly Cloudy
12:56 PM 75.0 °F 59.0 °F 57% 29.92 in 10.0 mi SW 8.1 mph 16.1 mph N/A   Mostly Cloudy
1:56 PM 77.0 °F 57.9 °F 52% 29.90 in 10.0 mi WSW 10.4 mph - N/A   Mostly Cloudy
2:56 PM 78.1 °F 57.9 °F 50% 29.90 in 10.0 mi West 5.8 mph - N/A   Mostly Cloudy
3:56 PM 78.1 °F 55.9 °F 46% 29.90 in 10.0 mi NNW 5.8 mph - N/A   Mostly Cloudy
4:56 PM 77.0 °F 55.9 °F 48% 29.91 in 10.0 mi North 6.9 mph - N/A   Mostly Cloudy
5:56 PM 70.0 °F 55.0 °F 59% 29.95 in 10.0 mi North 15.0 mph - N/A   Mostly Cloudy
6:56 PM 68.0 °F 55.0 °F 63% 29.98 in 10.0 mi NNE 12.7 mph 19.6 mph N/A   Overcast
7:56 PM 64.9 °F 54.0 °F 68% 30.00 in 10.0 mi North 10.4 mph - N/A   Scattered Clouds
8:56 PM 63.0 °F 54.0 °F 72% 30.03 in 10.0 mi North 9.2 mph - N/A   Mostly Cloudy
9:56 PM 59.0 °F 46.0 °F 62% 30.06 in 10.0 mi NE 12.7 mph 21.9 mph N/A   Mostly Cloudy
10:56 PM 57.0 °F 44.1 °F 62% 30.07 in 10.0 mi NE 12.7 mph - N/A   Overcast
11:56 PM 55.0 °F 42.1 °F 62% 30.09 in 10.0 mi NNE 12.7 mph - N/A   Overcast